Location: Ambrosina
(19.9365°S, 43.9833°W)
Time: 08:05:29
(UTC+00:00)

Cosmos 968 Rocket - Pass Details

Date: 11 May 2021
Orbit: 741 x 770 km, 74.0° (Epoch: 22 June)

Event Time Altitude Azimuth Distance (km) Brightness Sun altitude
Rises 20:49:52 0° 189° (S) 3,251 6.7 -5.5°
Reaches altitude 10° 20:52:17 10° 185° (S) 2,322 5.9 -6.1°
Maximum altitude 20:57:30 61° 105° (ESE) 876 3.5 -7.2°
Drops below altitude 10° 21:02:40 10° 25° (NNE) 2,304 5.9 -8.4°
Sets 21:05:03 0° 21° (NNE) 3,223 6.7 -9.0°
